x

8454049 - Quonset Point, Ri (qptr1) Weather Station

3:30 - Fri 30th Sep 2016 All times are EDT. -4 hours from GMT.

  • Wind
    21mph, 26mph gusts
  • Sea Temp 66°f
  • Luft Temp 60°f
  • Sea Pressure 1029.5mb
  • 8454049 - Quonset Point, Ri
  • 8454049 - Quonset Point, Ri

More Historic Weather Station data

Upgrade to MSW Pro to gain access to the past 30 days of data for over 8000 Wavebouys and Weather Stations around the globe.

Join Pro

Comparision Forecast

View Surf forecast
   
Fr 09/30 3:30 21 26 mph 1029.5mb 66f 60f
3:18 22 28 mph 1029.6mb 66f 60f
3:12 20 23 mph 1029.7mb 66f 59f
3:06 20 24 mph 1029.7mb 66f 59f
3:00 20 24 mph 1029.6mb 66f -
2:48 20 24 mph 1029.6mb 66f 59f
2:42 18 23 mph 1029.8mb - -
2:36 21 24 mph 1029.7mb - -
2:30 18 22 mph 1029.9mb 66f 59f
2:24 17 23 mph 1030.2mb 66f 60f
2:18 20 23 mph 1030.1mb 66f 59f
2:12 21 23 mph 1030.1mb 66f 59f
2:06 20 22 mph 1030.2mb 66f 59f
2:00 20 24 mph 1030.2mb 66f 59f
1:54 18 23 mph 1030.2mb 66f 59f
1:48 17 24 mph 1030.2mb 66f 59f
1:42 18 22 mph 1030.3mb 66f 59f
1:36 20 25 mph 1030.4mb 66f 59f
1:30 21 24 mph 1030.3mb 66f 59f
1:24 20 24 mph 1030.4mb 66f 59f
1:12 20 24 mph 1030.3mb 66f 59f
1:06 18 26 mph 1030.4mb 66f 59f
1:00 21 29 mph 1030.3mb 66f 59f
12:54 21 28 mph 1030.3mb 66f 59f
12:48 24 26 mph 1030.3mb 66f 59f
12:42 21 25 mph 1030.4mb 66f 59f
12:36 22 26 mph 1030.5mb 66f 59f
12:30 21 26 mph 1030.6mb 66f 59f
12:24 22 25 mph 1030.6mb 66f 59f
12:18 20 25 mph 1030.8mb 66f 59f
12:12 22 26 mph 1030.8mb 66f 59f
12:06 22 25 mph 1030.8mb 66f 59f
12:00 22 24 mph 1030.9mb 66f 59f
Do 09/29 11:48 22 26 mph - - -
11:42 20 23 mph 1031.3mb 66f 59f
11:36 21 24 mph 1031.4mb 66f 59f
11:30 18 24 mph 1031.4mb 66f 59f
11:24 18 22 mph 1031.5mb 66f 59f
11:18 18 25 mph 1031.4mb 66f 59f
11:06 16 24 mph 1031.3mb 66f 59f
10:54 21 24 mph 1031.4mb 66f 59f
10:48 18 24 mph 1031.3mb 66f 59f
10:36 23 28 mph 1031.3mb 66f 59f
10:30 20 25 mph 1031.5mb 66f 59f
10:24 22 28 mph 1031.6mb 66f 59f
10:18 21 26 mph 1031.5mb - -
10:12 20 29 mph 1031.4mb 66f 59f
10:06 20 22 mph 1031.6mb 66f 59f
10:00 18 24 mph 1031.6mb 66f 59f
9:54 20 25 mph 1031.4mb 66f 58f
9:48 21 25 mph 1031.4mb - -
9:42 21 25 mph 1031.7mb 66f 59f
9:36 21 24 mph 1031.5mb 66f 59f
9:30 17 22 mph 1031.7mb 66f 59f
9:24 21 26 mph 1031.7mb 66f 58f
9:18 21 24 mph 1031.7mb - -
9:12 21 25 mph 1031.7mb 66f 58f
9:00 22 24 mph 1031.3mb 66f 58f
8:54 21 24 mph 1031.6mb 66f 58f
8:48 20 24 mph 1031.7mb - -
8:42 22 25 mph 1031.4mb 66f 58f
8:36 20 29 mph 1031.1mb 67f 58f
8:30 21 26 mph 1031.2mb 67f 59f
8:24 22 25 mph 1031.2mb 67f 59f
8:18 21 24 mph 1031.4mb - -
8:12 23 28 mph 1031.3mb 67f 58f
8:06 23 29 mph 1030.9mb 67f 58f
8:00 23 26 mph 1031mb 67f 58f
7:54 23 28 mph 1031mb 67f 58f
7:48 21 29 mph 1030.9mb 66f -
7:42 22 26 mph 1030.8mb 66f -
7:36 21 25 mph 1030.8mb 66f -
7:30 23 28 mph 1030.7mb 66f 58f
7:24 22 29 mph 1030.7mb 66f 58f
7:18 24 29 mph 1030.6mb - -
7:00 21 29 mph 1030.7mb 67f 58f
6:54 24 28 mph 1030.6mb 67f 58f
6:48 23 28 mph 1030.6mb 67f -
6:42 23 28 mph 1030.7mb 67f -
6:30 25 29 mph 1030.5mb 67f 59f
6:24 24 28 mph 1030.5mb 67f 59f
6:18  -  mph 1030.5mb - -
6:12  -  mph 1030.6mb 66f -
6:06  -  mph 1030.6mb 66f -
6:00 25 29 mph 1030.7mb 66f 59f
5:54 25 29 mph 1030.7mb 66f 59f
5:48 26 29 mph - - -
5:42 24 30 mph - 66f 59f
5:36 23 26 mph - 66f 59f
5:24 24 29 mph 1030.6mb 66f 59f
5:18 22 29 mph 1030.6mb 66f 59f
5:06 22 28 mph 1030.6mb 66f 60f
5:00 24 29 mph 1030.5mb 66f 60f
4:54 26 30 mph 1030.4mb 66f 59f
4:48 26 32 mph 1030.3mb 66f 60f
4:18 21 25 mph 1030.5mb 66f 60f
4:12 22 26 mph 1030.5mb 66f 60f
4:06 22 29 mph 1030.5mb 66f 59f
4:00 24 29 mph 1030.4mb 66f 59f
3:54 25 29 mph 1030.4mb 66f 59f
3:48 25 30 mph 1030.4mb 66f 59f
3:42 25 30 mph 1030.5mb 66f 59f
3:36 26 30 mph 1030.5mb 66f 59f
3:30 25 28 mph 1030.7mb 66f 59f
3:24 22 25 mph 1030.7mb 66f 60f
3:18 23 26 mph - - -
3:12 22 30 mph 1030.7mb 66f 60f
3:06 26 31 mph 1030.6mb 66f 59f
3:00 25 32 mph 1030.6mb 66f 60f
2:54 24 30 mph 1030.7mb 66f 59f
2:48 23 29 mph 1030.8mb 66f 60f
2:42 24 30 mph 1030.8mb 66f 59f
2:36 24 30 mph 1030.7mb 66f 60f
2:30 25 29 mph 1030.7mb 66f -
2:24 23 29 mph 1030.7mb 66f 60f
2:18 23 28 mph 1030.6mb 66f 60f
2:06 23 28 mph 1030.6mb 66f 60f
2:00 23 29 mph 1030.6mb 66f 60f
1:54 26 31 mph 1030.5mb 66f 59f
1:48 25 30 mph - - -
1:36 24 30 mph 1030.6mb 66f 60f
1:30 26 31 mph 1030.7mb 66f 60f
1:24 22 28 mph 1030.8mb 66f 60f
1:18 24 30 mph 1030.8mb 66f 60f
1:12 25 32 mph 1030.6mb 66f 60f
1:06 25 31 mph 1030.6mb 66f 59f
1:00 23 30 mph 1030.7mb 66f -
12:54 21 28 mph 1030.9mb 66f 60f
12:48 24 29 mph 1030.9mb 66f 60f
12:42 23 26 mph 1031.1mb 66f 59f
12:36 25 31 mph 1031.1mb 66f 59f
12:30 22 30 mph 1031.1mb 66f 60f
12:24 25 28 mph 1031.1mb 66f 59f
12:18 24 29 mph 1030.9mb 66f 59f
12:12 23 28 mph 1030.9mb 67f 59f
12:06 25 32 mph 1030.9mb 66f 59f
12:00 25 30 mph 1030.8mb 66f 59f
11:54 25 28 mph 1030.9mb 66f 59f
11:48 25 31 mph 1030.8mb 66f 59f
11:42 24 30 mph 1030.7mb 66f 59f
11:36 26 30 mph 1030.8mb 66f 59f
11:30 26 30 mph 1030.7mb - -
11:24 23 29 mph 1030.6mb 66f 59f
11:12 25 30 mph 1030.6mb 66f 59f
11:06 24 31 mph 1030.5mb 66f 59f
10:54 23 29 mph 1030.3mb 67f 59f
10:48 24 30 mph 1030.2mb 67f 59f
10:42 26 34 mph 1030.2mb 67f 59f
10:36 26 31 mph 1030.1mb 67f 59f
10:30 23 31 mph 1030mb 67f 59f
10:24 24 30 mph 1029.9mb 67f 58f
10:18 25 32 mph 1030.1mb 66f 58f
10:12 25 30 mph 1030.1mb 66f 58f
10:06 28 32 mph 1030.1mb 66f 58f
10:00 24 29 mph 1030.2mb 66f 58f
9:54 23 30 mph 1030.2mb 66f 58f
9:48 25 29 mph - - -
9:42 26 30 mph 1030.2mb 67f 58f
9:36 24 30 mph 1030mb 67f 58f
9:30 28 33 mph 1029.8mb 66f 58f
9:24 26 31 mph 1029.8mb 66f 58f
9:18 26 30 mph 1029.7mb 67f 58f
9:12 25 29 mph 1029.7mb 67f 58f
9:00 24 30 mph 1029.6mb 67f 58f
8:54 25 30 mph 1029.6mb 67f 58f
8:48 28 31 mph 1029.6mb 67f 58f
8:42 26 30 mph 1029.5mb 67f 58f
8:30 26 31 mph 1029.3mb 67f 58f
8:24 24 29 mph 1029.1mb 67f 58f
8:18 25 30 mph 1029.1mb 67f 58f
8:06 24 31 mph 1029mb 67f 58f
8:00 23 28 mph 1029mb 67f 59f
7:54 25 29 mph 1028.9mb 67f 59f
7:48 23 29 mph 1028.9mb 67f 58f
7:42 24 29 mph 1028.8mb 67f 59f
7:36 25 31 mph 1028.7mb 67f 59f
7:30 23 28 mph 1028.7mb 67f 58f
7:24 22 26 mph 1028.8mb 67f 59f
7:18 23 26 mph 1028.7mb 67f 58f
7:12 24 30 mph 1028.6mb 67f 59f
7:06 22 28 mph 1028.5mb 67f 59f
7:00 23 28 mph 1028.4mb 67f 59f
6:54 24 26 mph 1028.4mb 67f 59f
6:48 22 25 mph 1028.3mb 67f 59f
6:42 21 25 mph 1028.4mb 67f 59f
6:36 23 29 mph 1028.2mb 67f 59f
6:30 25 29 mph 1028mb 67f 59f
6:24 25 31 mph 1027.9mb 67f 59f
6:18 25 31 mph 1027.9mb 67f 59f
6:12 24 29 mph 1027.9mb 67f 59f
6:06 25 29 mph 1027.9mb 67f 59f
5:54 23 29 mph 1027.9mb 67f 60f
5:48 26 32 mph 1027.6mb 67f 60f
5:42 28 30 mph 1027.5mb 67f 60f
5:36 25 29 mph 1027.5mb 67f 60f
5:30 23 29 mph 1027.5mb 67f 60f
5:18 22 28 mph 1027.5mb 67f 60f
5:12 22 30 mph 1027.4mb 67f 60f
5:06 24 30 mph 1027.3mb 67f 60f
5:00 23 29 mph 1027.2mb 67f 60f
4:54 25 29 mph 1027mb 67f 60f
4:48 22 26 mph - - -
4:42 25 29 mph 1026.8mb 67f 60f
4:36 24 31 mph 1026.8mb 67f 60f
4:30 23 31 mph 1026.8mb 67f 60f
4:24 23 29 mph 1026.8mb 67f 60f
4:18 22 30 mph 1026.7mb 67f 60f
4:12 25 29 mph 1026.7mb 67f 60f
4:06 23 31 mph 1026.6mb 67f 60f
4:00 25 30 mph 1026.5mb 67f 60f
3:54 26 30 mph 1026.4mb 67f 60f
3:42 24 29 mph 1026.3mb 67f 60f
3:36 23 30 mph 1026.3mb 67f 60f
3:24 22 29 mph 1026.3mb 67f 60f
3:18 24 32 mph - - -
3:12 25 29 mph 1026.1mb 67f 60f
3:06 24 28 mph 1026.2mb 67f 60f
3:00 24 28 mph 1026.3mb 67f 60f
2:54 22 25 mph 1026.3mb 67f 60f
2:48 22 29 mph 1026.2mb 67f 60f
2:42 22 29 mph 1026.1mb - -
2:36 25 30 mph 1025.9mb - -
2:30 25 29 mph 1025.9mb 67f 60f
2:24 22 28 mph 1025.8mb 67f 60f
2:18 26 33 mph - - -
2:12 25 30 mph 1025.7mb 67f 60f
2:06 24 29 mph 1025.7mb 67f 60f
2:00 23 29 mph 1025.6mb 67f 60f
1:54 23 28 mph 1025.7mb 67f 60f
1:48 23 30 mph 1025.7mb 67f 60f
1:42 25 30 mph 1025.7mb 67f -
1:36 26 29 mph 1025.6mb 67f -
1:30 26 32 mph 1025.8mb 67f 60f
1:24 25 29 mph 1025.8mb 67f 60f
1:18 24 31 mph 1025.8mb 67f 60f
1:12 22 30 mph 1025.9mb 67f 60f
1:06 23 29 mph 1026mb 67f 60f
1:00 24 30 mph 1026mb 67f 60f
12:54 24 29 mph 1025.9mb 67f 60f
12:48 23 28 mph 1026mb 67f 60f
12:42 23 30 mph 1026mb 67f 60f
12:36 24 28 mph 1026mb 67f 60f
12:30 23 29 mph 1026mb 67f 60f
12:24 22 29 mph 1025.8mb 67f 60f
12:18 24 28 mph 1025.6mb 67f 60f
12:12 22 30 mph 1025.7mb 67f 60f
12:06 23 26 mph 1025.6mb 67f 60f
12:00 23 28 mph 1025.7mb 67f 60f
Mi 09/28 11:54 24 26 mph 1025.7mb 67f 60f
11:48 22 28 mph - - -
11:42 23 28 mph 1025.7mb 67f 60f
11:36 22 26 mph 1025.8mb 67f 61f
11:30 23 28 mph 1025.8mb 67f 60f
11:24 23 26 mph 1026mb 67f 60f
11:18 22 26 mph 1025.9mb 67f 60f
11:12 24 28 mph 1025.9mb 67f 60f
11:06 22 28 mph 1025.9mb 67f 60f
11:00 23 28 mph 1025.9mb 67f 60f
10:54 21 25 mph 1025.8mb 67f 60f
10:48 23 26 mph 1025.7mb 67f 60f
10:42 22 25 mph 1025.7mb 67f 60f
10:30 21 25 mph 1025.7mb 67f 60f
10:24 21 24 mph 1025.6mb 67f 60f
10:18 22 24 mph 1025.5mb - -
10:12 21 26 mph 1025.3mb 67f 59f
10:06 22 24 mph 1025.3mb 67f 60f
10:00 21 25 mph 1025.3mb 67f 60f
9:54 22 24 mph 1025.3mb 67f 59f
9:48 21 23 mph 1025.3mb 67f 59f
9:42 20 28 mph 1025.2mb 67f 60f
9:36 21 26 mph 1025.2mb 68f 59f
9:30 22 24 mph 1025mb 68f 59f
9:24 21 24 mph 1024.9mb 68f 59f
9:18 21 24 mph 1025mb - -
9:12 22 25 mph 1024.8mb 68f 59f
9:06 23 26 mph 1024.5mb 68f 59f
9:00 23 28 mph 1024.5mb 68f 59f
8:54 23 28 mph 1024.6mb 68f 59f
8:48 23 26 mph 1024.6mb - -
8:42 23 26 mph 1024.5mb 68f 59f
8:36 23 26 mph 1024.5mb 68f 58f
8:30 22 28 mph - 68f 59f
8:24 21 28 mph - 68f 58f
8:18 21 28 mph - 68f 58f
8:12 21 25 mph 1024.3mb 68f 58f
8:06 21 25 mph 1024.3mb 68f 58f
8:00 20 25 mph 1024.2mb 68f 58f
7:54 22 29 mph 1024.1mb 68f 58f
7:48 22 26 mph 1024.1mb 68f -
7:42 20 26 mph 1024mb 68f -
7:36 22 25 mph 1023.8mb 68f -
7:30 21 28 mph 1023.8mb 68f 58f
7:24 21 25 mph 1023.7mb 68f 58f
7:18 23 28 mph 1023.7mb - -
7:12 25 29 mph 1023.6mb 68f 58f
7:06 23 26 mph 1023.5mb 68f 58f
7:00 24 29 mph 1023.5mb 68f 58f
6:54 21 28 mph 1023.6mb 68f 58f
6:48 22 26 mph 1023.6mb 68f 58f
6:42 24 28 mph 1023.5mb 68f -
6:36 23 28 mph 1023.4mb 68f -
6:30 25 29 mph 1023.3mb 68f 58f
6:18 24 28 mph 1023.4mb - -
6:12 28 31 mph 1023.4mb 68f 58f
6:06 23 31 mph 1023.5mb 68f 58f
6:00 23 29 mph 1023.5mb 68f 58f
5:54 24 30 mph 1023.4mb 68f 58f
5:48 25 30 mph 1023.3mb - -
5:42 24 31 mph 1023.3mb 68f 58f
5:36 25 31 mph 1023.4mb 68f 58f
5:30 23 29 mph 1023.4mb 68f 58f
5:24 23 31 mph 1023.4mb 68f 57f
5:18 23 28 mph 1023.4mb 68f 58f
5:12 24 28 mph 1023.4mb 68f 58f
5:06 22 29 mph 1023.3mb 68f 58f
5:00 23 29 mph 1023.1mb 68f 58f
4:54 24 31 mph 1023.1mb 68f 58f
4:48 28 31 mph 1022.8mb 68f 57f
4:42 26 31 mph 1022.8mb 68f 58f
4:36 26 31 mph 1022.9mb 68f 57f
4:30 26 30 mph 1022.9mb 68f 58f
4:24 26 30 mph 1022.9mb 68f 58f
4:18 25 31 mph 1022.9mb 68f 58f
4:12 26 31 mph 1022.8mb 68f 58f
4:06 23 29 mph 1022.8mb 68f 58f
4:00 25 33 mph 1022.7mb 68f 58f
3:54 25 30 mph 1022.7mb 68f 59f
3:48 25 32 mph 1022.7mb 68f 59f
3:42 24 30 mph 1022.6mb 68f 59f
3:30 26 31 mph 1022.6mb 68f 59f
3:24 29 34 mph 1022.5mb 68f 60f
3:18 28 32 mph 1022.5mb 68f 59f
3:12 25 30 mph 1022.5mb 68f 60f
3:06 28 33 mph 1022.5mb 68f 60f
3:00 28 32 mph 1022.5mb 68f 60f
2:54 22 26 mph 1022.4mb 68f 60f
2:48 25 30 mph 1022.4mb 68f 60f
2:42 29 33 mph 1022.3mb 68f 60f
2:36 28 32 mph 1022.2mb 68f 60f
2:30 26 31 mph 1022.1mb 68f 60f
2:24 23 28 mph 1022.2mb 68f 59f
2:18 22 28 mph 1022.1mb 68f 60f
2:12 22 29 mph 1022mb 68f 61f
2:06 26 30 mph 1021.8mb 68f 60f
2:00 25 30 mph 1021.8mb 68f 61f
1:54 24 29 mph 1021.9mb 68f 61f
1:48 23 30 mph - - -
1:42 25 29 mph 1021.8mb 68f 61f
1:36 23 29 mph 1021.9mb 68f 61f
1:30 22 29 mph 1022mb 68f 62f
1:24 24 29 mph 1022.1mb 68f 61f
1:18 24 28 mph 1022mb 68f 62f
1:12 22 30 mph 1022mb 68f 62f
1:06 24 29 mph 1021.9mb 68f 62f
1:00 22 28 mph 1021.9mb 68f 62f
12:54 22 28 mph 1022mb 68f 62f
12:48 24 29 mph 1021.8mb 68f 62f
12:42 24 28 mph 1021.9mb 68f 62f
12:36 24 29 mph 1021.9mb 68f 62f
12:30 20 26 mph 1021.9mb 68f 62f
12:24 21 26 mph 1021.9mb 68f 62f
12:18 23 26 mph 1021.9mb 68f 62f
12:12 24 29 mph 1021.8mb 68f 62f
12:06 24 29 mph 1021.8mb 68f 62f
12:00 21 26 mph 1021.8mb 68f 62f
11:54 21 25 mph 1021.8mb 68f 62f
11:48 23 28 mph 1021.8mb 68f 62f
11:42 21 26 mph 1021.6mb 68f 62f
11:36 25 28 mph 1021.7mb 68f 62f
11:30 24 26 mph 1021.7mb 68f 62f
11:24 22 28 mph 1021.7mb 68f 62f
11:12 21 25 mph 1021.7mb 68f 62f
11:06 21 25 mph 1021.8mb 68f 62f
11:00 23 28 mph 1021.9mb 68f 61f
10:54 21 25 mph 1021.9mb 68f 61f
10:48 21 29 mph 1021.9mb 68f 61f
10:42 20 25 mph 1021.9mb 68f 62f
10:36 22 26 mph 1021.8mb 68f 61f
10:30 22 26 mph 1021.7mb 68f 61f
10:24 22 25 mph 1021.7mb 68f 61f
10:18 22 28 mph 1021.8mb 68f 62f
10:12 22 25 mph 1021.7mb 68f 61f
10:06 23 30 mph 1021.6mb 68f 62f
10:00 24 29 mph 1021.6mb 68f 62f
9:54 22 28 mph 1021.8mb 68f 62f
9:48 21 25 mph - - -
9:36 22 26 mph 1021.7mb 68f 61f
9:30 24 28 mph 1021.5mb 68f 61f
9:24 22 26 mph 1021.5mb 68f 62f
9:18 22 28 mph 1021.5mb 68f 61f
9:12 22 25 mph 1021.4mb 68f 61f
9:06 20 24 mph 1021.4mb 68f 61f
9:00 18 23 mph 1021.4mb 68f 61f
8:54 18 24 mph 1021.3mb 68f 61f
8:48 18 23 mph 1021.2mb 68f 62f
8:42 21 26 mph 1021.2mb 68f 61f
8:36 22 24 mph 1021mb 68f 62f
8:30 22 28 mph 1021mb 68f 62f
8:24 23 25 mph 1020.8mb 68f 61f
8:18 21 24 mph 1020.7mb 68f 61f
8:12 21 25 mph 1020.6mb 68f 62f
8:06 20 26 mph 1020.5mb 68f 62f
8:00 22 25 mph 1020.4mb 68f 62f
7:54 23 28 mph 1020.3mb 68f 62f
7:48 23 25 mph 1020.2mb 68f 62f
7:42 22 26 mph 1020mb 68f 62f
7:36 20 25 mph 1019.9mb 68f 62f
7:30 21 25 mph 1020mb 68f 62f
7:24 22 25 mph 1019.9mb 68f 62f
7:12 20 22 mph 1019.7mb 68f 62f
7:06 20 24 mph 1019.6mb 68f 62f
7:00 20 23 mph 1019.5mb 68f 62f
6:54 18 22 mph 1019.5mb 68f 62f
6:42 17 20 mph 1019.4mb 68f 62f
6:36 17 20 mph 1019.3mb 68f 62f
6:30 15 20 mph 1019.3mb 68f 63f
6:24 17 20 mph 1019.2mb 68f 63f
6:18 16 21 mph 1019.1mb 68f 63f
6:12 17 22 mph 1019mb 68f 63f
6:06 20 22 mph 1019mb 68f 63f
6:00 18 21 mph 1018.9mb 68f -
5:48 20 23 mph 1018.8mb 68f 63f
5:42 20 23 mph 1018.7mb 68f 63f
5:30 20 22 mph 1018.6mb 68f 63f
5:24 17 21 mph 1018.5mb 68f 62f
5:18 16 20 mph 1018.5mb 68f 63f
5:12 16 20 mph 1018.5mb 68f 62f
5:06 17 21 mph 1018.4mb 68f 63f
5:00 18 21 mph 1018.3mb 68f 62f
4:54 21 23 mph 1018.3mb 68f 63f
4:48 14 21 mph 1018.2mb 68f 63f
4:42 16 20 mph 1018.1mb 68f 63f
4:36 17 20 mph 1018mb 68f 62f
4:30 15 18 mph 1017.9mb 68f 62f
4:24 16 17 mph 1017.8mb 68f 62f
4:18 15 16 mph 1017.8mb 68f 62f
4:12 13 15 mph 1017.7mb 68f 63f
4:06 13 14 mph 1017.6mb 68f 62f
4:00 14 15 mph 1017.6mb 68f 62f
3:54 14 16 mph 1017.6mb 68f 62f
3:48 13 16 mph - - -
3:42 15 18 mph 1017.4mb 68f 62f
3:36 13 15 mph 1017.3mb 68f 63f
3:30 10 14 mph 1017.4mb 68f 62f
3:24 7 9 mph 1017.4mb 68f 62f
3:18 7 9 mph 1017.3mb 68f 62f
3:06 9 11 mph 1017.1mb 68f 62f
3:00 9 11 mph 1017.2mb 68f 62f
2:54 10 11 mph 1017.1mb 68f 62f
2:42 7 8 mph 1017.1mb 68f 62f
2:36 5 8 mph 1017.2mb 68f 62f
2:30 7 9 mph 1017.1mb 68f 62f
2:24 7 9 mph 1017mb 68f 62f
2:18 7 8 mph - - -
2:12 6 8 mph 1017mb 68f 63f
2:06 7 9 mph 1016.9mb 69f 63f
2:00 7 9 mph 1016.7mb 69f 63f
1:54 8 11 mph 1016.8mb 69f 64f
1:48 6 8 mph 1016.7mb 69f 64f
1:42 7 9 mph 1016.8mb 69f -
1:36 8 9 mph 1016.7mb 69f -
1:30 8 9 mph 1016.7mb 69f 63f
1:24 6 7 mph 1016.7mb 69f 63f
1:18 5 6 mph 1016.6mb 69f 63f
1:12 3 5 mph 1016.7mb 69f 63f
1:06 5 6 mph 1016.4mb 69f 63f
1:00 5 6 mph 1016.4mb 69f 63f
12:54 5
mph
1016.4mb 69f 63f
12:12 5 6 mph 1016mb 69f 63f
12:06 6 7 mph 1016.1mb 69f 62f
12:00 5 6 mph 1015.9mb 69f 63f
Di 09/27 11:54 5 6 mph 1015.9mb 69f 63f
11:48 5 6 mph - - -
11:42 5 7 mph 1015.7mb 69f 63f
11:36 6
mph
1015.5mb 69f 63f
11:30 3 5 mph 1015.7mb 69f -
11:24 5
mph
1015.7mb 69f 64f
11:18 2 3 mph 1015.7mb 69f 64f
11:12 2
mph
1015.7mb 69f 64f
11:06 1 2 mph 1015.7mb 69f 65f
11:00  -  1 mph 1015.7mb 69f 65f
10:54  -  1 mph 1015.7mb 69f 65f
10:48 1 2 mph - - -
10:42  -  2 mph 1015.6mb 69f 64f
10:36 2
mph
1015.5mb 69f 64f
10:30 2
mph
1015.5mb 69f 64f
10:24 3
mph
1015.5mb 69f 64f
10:18 1 2 mph 1015.4mb - -
10:12 2
mph
1015.3mb 69f 64f
10:06 2 3 mph 1015.2mb 69f 64f
10:00 5
mph
1015.1mb 69f 64f
9:54 3
mph
1015.1mb 69f 65f
9:48 2 3 mph 1015mb - -
9:42 2
mph
1015mb 69f 65f
9:36 1 2 mph 1014.9mb 69f 65f
9:30 1 2 mph 1014.9mb 69f 65f
9:24 2 3 mph 1014.8mb 69f 65f
9:18 2 3 mph - - -
9:12 3 5 mph - 69f 65f
9:06 3 5 mph - 69f 65f
9:00 5
mph
1014.7mb 69f 65f
8:54 5 6 mph 1014.6mb 69f 66f
8:48 5 6 mph 1014.5mb - -
8:42 5
mph
1014.4mb 69f 66f
8:36 5 6 mph 1014.2mb 69f 66f
8:30 5 6 mph 1014.2mb 69f 66f
8:24 6
mph
1014.2mb 69f 66f
8:18 5 6 mph 1014.2mb - -
8:12 5 6 mph 1014.2mb 69f 66f
8:06 6
mph
1014.1mb 69f 66f
8:00 6
mph
1014.1mb 69f 66f
7:54 6 7 mph 1014.1mb 69f 66f
7:48 6 7 mph 1014.1mb - -
7:42 6
mph
1014mb 69f -
7:36 5 6 mph 1013.9mb 69f -
7:30 5 6 mph 1013.8mb 69f 67f
7:24 5 6 mph 1013.7mb 69f 66f
7:06 7 8 mph 1013.6mb 69f 67f
7:00 7 8 mph 1013.4mb 69f 67f
6:54 8 10 mph 1013.4mb 69f 67f
6:48 9 10 mph 1013.5mb - -
6:42 9 10 mph 1013.5mb 69f 67f
6:36 9 10 mph 1013.5mb 69f 67f
6:30 10 11 mph 1013.5mb 69f 67f
6:24 8 10 mph 1013.3mb 69f 67f
6:18 10 11 mph 1013.1mb - -
6:12 9 11 mph 1013mb 69f 67f
5:54 10 11 mph 1012.7mb 69f 68f
5:42 13 14 mph - 69f 67f
5:36 11 15 mph - 69f 67f
5:30 14 16 mph 1012.7mb 69f 67f
5:24 14 15 mph 1012.7mb 69f 68f
5:18 13 14 mph 1012.7mb 69f 68f
5:06 11 13 mph 1012.8mb 69f 68f
5:00 10 11 mph 1012.6mb 69f 68f
4:54 9 10 mph 1012.5mb 69f 68f
4:48 8 9 mph - - -
4:42 8 9 mph 1012.4mb 69f 68f
4:36 9
mph
1012.4mb 69f 68f
4:30 8 9 mph 1012.2mb 69f 68f
4:24 9 11 mph 1012.2mb 69f 68f
4:18 10 11 mph - - -
4:12 10
mph
1012.2mb 69f 68f
4:06 10 11 mph 1012.2mb 69f 68f
4:00 10 11 mph 1012.2mb 69f 68f
3:54 9 10 mph 1012.3mb 69f 68f
3:48 9 10 mph 1012.3mb 69f 68f
3:42 7
mph
1012.4mb 69f 69f
3:36 7
mph
1012.4mb 69f 69f
3:30 7 8 mph 1012.4mb 69f 69f
3:24 6 7 mph 1012.4mb 69f 69f
3:18 5 6 mph 1012.3mb 69f 69f
3:12 6 7 mph 1012.4mb 69f 69f
3:06 6 7 mph 1012.4mb 69f 69f
3:00 6
mph
1012.4mb 69f 69f
2:42 3
mph
1012.3mb 68f 69f
2:36 3
mph
1012.3mb 68f 69f
2:24 3
mph
1012.2mb 69f 69f
2:18 3 5 mph 1012.3mb 69f 69f
2:12 3
mph
1012.2mb 69f 69f
2:06 3 5 mph 1012.3mb 69f 69f
2:00 5 6 mph 1012.3mb 69f 69f
1:54 5 6 mph 1012.4mb 69f 69f
1:48 6
mph
- - -
1:42 6 7 mph 1012.5mb 69f 69f
1:36 5 6 mph 1012.6mb 69f 69f
1:30 6 7 mph 1012.6mb 69f 69f
1:24 5 6 mph 1012.5mb 69f 69f
1:18 5 6 mph - - -
1:12 6
mph
1012.6mb 69f 69f
1:06 6 7 mph 1012.7mb 69f 69f
1:00 5 6 mph 1012.8mb 69f 69f
12:54 1 5 mph 1012.8mb 69f 70f
12:48 3 5 mph 1012.7mb 69f 69f
12:42 2 5 mph 1012.7mb 69f 69f
12:36 2 6 mph 1012.7mb 69f 69f
12:30 5 6 mph 1012.7mb 69f 68f
12:24 5 8 mph 1012.7mb 69f 68f
12:18 6 8 mph 1012.8mb 69f 68f
12:12 2 7 mph 1012.8mb 69f 69f
12:06 6 8 mph 1012.7mb 69f 68f
12:00 5 7 mph 1012.8mb 69f 68f
11:54 5 8 mph 1012.8mb 69f 68f
11:42 6 9 mph 1012.7mb 69f 68f
11:36 7 9 mph 1012.9mb 69f 68f
11:30 5 10 mph 1012.9mb 69f 67f
11:24 6 8 mph 1012.9mb 69f 67f
11:18 5 8 mph 1012.9mb 69f 67f
11:12 6 7 mph 1012.8mb 69f 67f
11:06 5 6 mph 1012.7mb 69f 66f
11:00 5 7 mph 1012.7mb 68f -
10:54 6 7 mph 1012.8mb 68f 66f
10:48 6 7 mph - - -
10:42 6 7 mph 1012.7mb 68f 66f
10:36 6
mph
1012.9mb 68f 66f
10:30 5 6 mph 1012.7mb 68f 66f
10:24 6 7 mph 1012.7mb 68f 66f
10:18 6
mph
1012.7mb 69f 66f
10:12 6 7 mph 1012.7mb 69f 66f
10:06 6 7 mph 1012.7mb 69f 66f
9:54 7
mph
1012.9mb 69f 66f
9:48 7 8 mph - - -
9:42 6 7 mph 1012.9mb 69f 66f
9:36 6 8 mph 1012.7mb 69f 66f
9:30 5 7 mph 1012.6mb 69f 67f
9:24 7 10 mph 1012.5mb 69f 67f
9:18 8 11 mph 1012.5mb 69f 67f
9:12 8 11 mph 1012.5mb 69f 67f
9:06 8 10 mph 1012.4mb 69f 67f
8:54 10 11 mph 1012.3mb 69f 67f
8:48 8 9 mph 1012.2mb 69f 67f
8:42 8 13 mph 1012.1mb 69f 68f
8:36 11 15 mph 1012.1mb 69f 68f
8:30 14 18 mph 1012.1mb 69f 68f
8:24 14 16 mph 1012.1mb 69f 68f
8:18 14 18 mph 1011.9mb 69f 68f
8:12 16 24 mph 1011.8mb 69f 68f
8:06 18 23 mph 1011.7mb 68f 68f
8:00 17 22 mph 1011.6mb 68f 68f
7:54 17 23 mph 1011.5mb 68f 68f
7:48 20 23 mph 1011.4mb 68f 68f
7:42 21 24 mph 1011.5mb 68f 68f
7:36 20 23 mph 1011.6mb 68f 68f
7:30 20 23 mph 1011.6mb 68f -
7:24 20 30 mph 1011.7mb 68f 67f
7:18 22 26 mph 1011.6mb 68f 67f
7:12 17 22 mph 1011.8mb 68f 67f
7:06 17 21 mph 1011.8mb 68f 67f
7:00 15 20 mph 1011.9mb 68f 67f
6:54 15 18 mph 1011.9mb 68f 66f
6:48 17 22 mph 1012mb 68f 66f
6:42 18 22 mph 1012.1mb 68f 66f
6:36 16 18 mph 1012.3mb 68f 66f
6:30 15 18 mph 1012.4mb 68f 66f
6:24 14 18 mph 1012.5mb 68f 66f
6:18 16 18 mph 1012.6mb 68f 66f
6:12 14 16 mph 1012.7mb 68f 66f
6:06 14 20 mph 1012.7mb 68f 66f
6:00 13 17 mph 1012.7mb 68f 66f
5:48 10 11 mph 1012.8mb 68f 66f
5:42 9 11 mph 1012.9mb 68f 66f
5:30 10
mph
1012.9mb 68f 67f
5:24 9 13 mph 1012.8mb 68f 67f
5:18 9 15 mph 1012.7mb 68f 67f
5:12 13 16 mph 1012.8mb 68f 68f
5:00 14 17 mph 1012.8mb 68f 68f
4:54 15 18 mph 1012.9mb 68f 68f
4:42 15 20 mph 1013.1mb 68f 68f
4:36 16 21 mph 1013.1mb 68f 68f
4:30 16 18 mph 1013.1mb 68f -
4:24 18 21 mph 1013.2mb 69f 68f
4:18 17 21 mph 1013.3mb 68f 68f
4:12 16 18 mph 1013.4mb 69f 68f
4:06 17 20 mph 1013.4mb 69f 68f
4:00 15 17 mph 1013.5mb 69f 68f
3:54 15 17 mph 1013.5mb 69f 68f
3:48 14 16 mph 1013.6mb 69f 68f
3:42 14 18 mph 1013.8mb 69f 68f
3:36 14 16 mph 1013.9mb 69f 67f
3:30 14 16 mph 1013.9mb 69f 67f
3:24 16 18 mph 1014mb 69f 67f
3:18 15 18 mph 1014.1mb 69f 67f
3:06 14 17 mph 1014.3mb 69f 67f
3:00 13 16 mph 1014.4mb 69f -
2:54 14 16 mph 1014.6mb 69f 67f
2:48 11 14 mph 1014.7mb 69f 67f
2:42 11 14 mph 1014.8mb 69f -
2:36 11 14 mph 1014.9mb 69f -
2:30 11 14 mph 1015mb 69f 67f
2:24 11 14 mph 1015.1mb 69f 66f
2:18 11 16 mph - - -
2:12 13 17 mph 1015.1mb 69f 66f
2:06 14 17 mph 1015.1mb 69f 66f
2:00 14 17 mph 1015.1mb 69f 67f
1:54 14 17 mph 1015.1mb 69f 67f
1:48 14 18 mph 1015.2mb 69f 67f
1:42 15 17 mph 1015.3mb 69f -
1:36 14 17 mph 1015.3mb 69f -
1:30 15 17 mph 1015.3mb 69f 66f
1:24 16 20 mph 1015.4mb 69f 66f
1:18 16 20 mph 1015.4mb 69f 66f
1:12 16 20 mph 1015.4mb 69f 66f
1:06 16 18 mph 1015.5mb 69f 66f
1:00 15 18 mph 1015.7mb 69f 66f
12:54 17 18 mph 1015.8mb 69f 66f
12:48 15 17 mph 1015.9mb 69f 66f
12:42 16 18 mph 1016mb 69f 66f
12:30 15 17 mph 1016.1mb 69f 66f
12:24 13 17 mph 1016.2mb 69f 66f
12:18 14 17 mph 1016.4mb 69f 66f
12:12 15 18 mph 1016.4mb 69f 66f
12:06 16 20 mph 1016.4mb 69f 66f
12:00 16 18 mph 1016.6mb 69f -
Mo 09/26 11:54 14 16 mph 1016.8mb 69f 65f
11:48 14 18 mph - - -
11:42 17 18 mph 1017.1mb 69f 65f
11:36 14 18 mph 1017.2mb 69f 65f
11:30 14 16 mph 1017.2mb 69f 65f
11:24 15 17 mph 1017.3mb 69f 65f
11:18 15 20 mph 1017.3mb 69f 65f
11:12 17 18 mph 1017.5mb 69f 65f
11:06 15 17 mph 1017.6mb 69f 65f
11:00 15 17 mph 1017.7mb 69f 64f
10:54 14 15 mph 1017.8mb 69f 64f
10:48 11 14 mph - - -
10:42 13 15 mph 1018mb 69f 64f
10:36 11 14 mph 1018.1mb 69f 63f
10:30 10 13 mph 1018.1mb 69f 63f
10:24 10 11 mph 1018.3mb 69f 63f
10:18 9 10 mph 1018.2mb - -
10:12 8 10 mph 1018.3mb 69f 62f
10:06 8 10 mph 1018.3mb 69f 62f
10:00 9 10 mph 1018.4mb 69f 62f
9:54 8 11 mph 1018.4mb 69f 62f
9:48 10 11 mph 1018.5mb - -
9:42 11 15 mph 1018.5mb 69f 62f
9:36 14 15 mph 1018.5mb 69f 63f
9:30 14 16 mph 1018.4mb 69f 63f
9:24 15 18 mph 1018.4mb 69f 63f
9:18 16 20 mph 1018.4mb 69f 64f
9:12  -  mph 1018.3mb 69f 64f
9:06  -  mph 1018.3mb 69f 64f
9:00 16 18 mph 1018.3mb 69f 64f
8:54 16 20 mph 1018.5mb 69f 64f
8:48 14 17 mph 1018.5mb - -
8:42 15 17 mph 1018.6mb 69f 63f
8:36 15 17 mph 1018.6mb 69f 63f
8:30 15 17 mph 1018.7mb 69f 63f
8:24 14 17 mph 1018.7mb 69f 63f
8:18  -  mph 1018.8mb - -
8:12  -  mph 1018.7mb 69f 62f
8:06  -  mph 1018.7mb 69f 62f
8:00 14 16 mph 1018.8mb 69f 62f
7:54 15 17 mph 1018.7mb 69f 63f
7:48 14 17 mph 1018.6mb - -
7:42 14 17 mph 1018.6mb 69f 63f
7:36 14 17 mph 1018.7mb 69f 63f
7:30 14 16 mph 1018.8mb 69f 63f
7:24 13 15 mph 1018.9mb 69f 62f
7:18 13 14 mph 1018.9mb - -
7:12 13 14 mph 1019mb 69f 62f
7:06 11 14 mph 1019mb 69f 62f
7:00 11 13 mph 1019.2mb 69f 62f
6:54 11 14 mph 1019.2mb 69f 62f
6:48 11 13 mph 1019.3mb 69f -
6:42 11 13 mph 1019.4mb 69f -
6:36 10 13 mph 1019.4mb 69f -
6:30 11 13 mph - 69f 62f
6:24 11 15 mph - 69f 63f
6:18 13 15 mph - 69f 63f
6:12 15 16 mph 1019.6mb 69f 63f
6:06 14 16 mph 1019.6mb 69f 63f
6:00 14 17 mph 1019.7mb 69f 63f
5:48 15 18 mph 1019.7mb - -
5:42 15 17 mph 1019.7mb 69f 63f
5:30 15 18 mph 1019.7mb 69f 64f
5:24 16 21 mph 1019.7mb 69f 64f
5:18 14 17 mph 1019.6mb 69f 64f
5:12 16 20 mph 1019.6mb 69f 64f
5:06 16 18 mph 1019.6mb 69f 64f
5:00 16 20 mph 1019.7mb 69f 64f
4:54 16 18 mph 1019.8mb 69f 64f
4:48 15 17 mph 1019.9mb 69f 64f
4:42 15 18 mph 1020mb 69f 64f
4:36 16 20 mph 1020mb 69f 64f
4:30 16 21 mph 1020.1mb 69f -
4:24 13 18 mph 1020.2mb 69f 64f
4:18 15 20 mph 1020.3mb 69f 63f
4:06 16 18 mph 1020.3mb 69f 63f
4:00 17 21 mph 1020.3mb 69f 63f
3:54 17 22 mph 1020.4mb 69f 63f
3:48 18 22 mph 1020.4mb 69f 62f
3:42 20 21 mph 1020.5mb 69f 62f
3:36 17 22 mph 1020.6mb 69f 62f
3:30 18 21 mph 1020.6mb 69f 62f
3:24 18 21 mph 1020.6mb 69f 62f
3:18 17 21 mph 1020.7mb 69f 62f
3:12 18 20 mph 1020.8mb 69f 62f
3:06 15 18 mph 1020.8mb 69f 62f
3:00 17 20 mph 1020.8mb 69f 62f
2:54 15 18 mph 1020.8mb 69f 62f
2:48 15 17 mph 1020.9mb 69f 61f
2:42 14 16 mph 1021mb 69f 61f
2:36 14 16 mph 1021mb 70f 61f
2:30 14 16 mph 1021mb 70f 61f
2:24 16 18 mph 1021.1mb 70f 61f
2:18 11 15 mph 1021.1mb 69f 61f
2:12 13 15 mph 1021.2mb 69f 61f
2:06 14 17 mph 1021.2mb 69f 61f
2:00 14 16 mph 1021.2mb 69f 61f
1:54 15 16 mph 1021.3mb 69f 61f
1:48 14 17 mph 1021.4mb 69f 61f
1:42 14 16 mph 1021.4mb 69f 61f
1:36 14 17 mph 1021.4mb 69f 61f
1:30 7 10 mph 1021.5mb 69f -
1:24 6 8 mph 1021.6mb 69f 61f
1:18 5 8 mph 1021.7mb 69f 61f
1:12 6 8 mph 1021.7mb 69f 61f
1:06 6 7 mph 1021.8mb 69f 61f
1:00 6 9 mph 1021.8mb 69f 61f
12:54 5 7 mph 1022mb 69f 61f
12:48 5 8 mph 1022mb 69f 61f
12:42 6 7 mph 1022.1mb 69f 60f
12:36 6 8 mph 1022.1mb 69f 60f
12:30 6 7 mph 1022.1mb 69f 60f
12:24 5 6 mph 1022.2mb 69f 60f
12:18 5 6 mph 1022.2mb 69f 60f
12:12 5 7 mph 1022.2mb 69f 60f
12:06 5 6 mph 1022.3mb 69f 60f
12:00 5 6 mph 1022.4mb 69f 60f
11:54 3 5 mph 1022.5mb 69f 60f
11:48 3 5 mph 1022.6mb 69f 60f
11:42 3 5 mph 1022.7mb 69f 60f
11:36 2 3 mph 1022.8mb 69f 60f
11:30 2
mph
1022.9mb 69f 60f
11:24  -  2 mph 1023mb 69f 61f
11:18  -  2 mph 1023mb 69f 61f
11:12 1 5 mph 1023.2mb 69f 60f
11:06 2 3 mph 1023.2mb 69f 60f
11:00  -  2 mph 1023.3mb 69f 61f
10:54 2 3 mph 1023.4mb 69f 59f
10:48 2 3 mph 1023.3mb 69f 59f
10:42 2 5 mph 1023.4mb 69f 58f
10:36 3 5 mph 1023.4mb 69f 58f
10:24 3 6 mph 1023.5mb 69f 58f
10:18 3 5 mph - - -
10:12 3 5 mph 1023.6mb 69f 57f
10:06 3 5 mph 1023.5mb 69f 57f
10:00 2 6 mph 1023.6mb 69f 57f
9:54 3 5 mph 1023.7mb 69f 57f
9:48 5 7 mph - - -
9:42 5 7 mph 1023.7mb 69f 56f
9:36 3 5 mph 1023.7mb 69f 56f
9:30 5 6 mph 1023.7mb 69f 56f
9:24 3 6 mph 1023.7mb 69f 56f
9:18 3 6 mph 1023.7mb 69f 56f
9:12 5 7 mph 1023.7mb 69f 55f
9:06 5 6 mph 1023.7mb 69f 55f
9:00 6 7 mph 1023.7mb 69f 55f
8:54 5 7 mph 1023.7mb 69f 55f
8:48 6 7 mph 1023.6mb 69f 54f
8:42 5 6 mph 1023.7mb 69f 54f
8:36 5 6 mph 1023.7mb 69f 53f
8:30 5 6 mph 1023.7mb 69f 53f
8:24 3 6 mph 1023.7mb 69f 52f